Weerstation Grootegast  Weerstation Grootegast


15 daagse weersverwachting Frauenfeld (CH)

  • Overzicht
  • Per uur
  • 15 dagen
  • Extra
  • Vergelijk
  • Kaarten
  • Dagkaart
  • Meer »
  • Info
  • Statistieken
  • Directe link
    Temp 6h Neerslag Wind  
 07:12     19:23    Daglengte: 12:11 Vandaag
08:00
14°
 
1
14:00
22°
 
1
20:00
18°
 
1
 07:13     19:21    Daglengte: 12:08 Morgen
02:00
14°
 
1
08:00
14°
 
1
14:00
22°
 
1
20:00
18°
 
1
 07:15     19:19    Daglengte: 12:04 Woensdag 23 Sep
02:00
16°
 
2
08:00
15°
 
2
14:00
21°
1.0 mm
3
20:00
16°
 
2
Locatie info
Region: Frauenfeld
Latitude: 47.5555°N
Longitude: 8.8972°E
432 masl
Postcode: 8500
Temp/Neerslag /Baro Onweer/Dauwpunt
    Temp Baro 1h Neerslag Dauwpunt Wind UV Bewolking  
 07:12     19:23    Daglengte: 12:11 Vandaag
04:00
14°
1015.5 hPa   13.2°
1
Windvlaag: 0.4 m/s
32%
05:00
14°
1015.4 hPa   13.1°
1
Windvlaag: 1.1 m/s
23%
06:00
14°
1015.4 hPa   13.0°
1
Windvlaag: 0.7 m/s
19%
07:00
14°
1015.6 hPa   12.9°
1
Windvlaag: 0.8 m/s
20%
08:00
14°
1016.0 hPa   13.4°
1
Windvlaag: 0.5 m/s
26%
09:00
15°
1016.1 hPa
20%
13.3°
1
Windvlaag: 0.4 m/s
29%
10:00
17°
1016.0 hPa   13.7°
1
Windvlaag: 1.3 m/s
31%
11:00
19°
1015.9 hPa   14.0°
1
Windvlaag: 1.2 m/s
35%
12:00
20°
1015.6 hPa   14.0°
1
Windvlaag: 1.2 m/s
27%
13:00
21°
1015.2 hPa
11%
13.9°
1
Windvlaag: 1.1 m/s
27%
14:00
22°
1014.7 hPa   13.9°
1
Windvlaag: 1.3 m/s
29%
15:00
23°
1014.1 hPa   13.9°
1
Windvlaag: 1 m/s
28%
16:00
23°
1013.7 hPa   13.6°
1
Windvlaag: 0.6 m/s
13%
17:00
23°
1013.5 hPa
12%
13.8°
1
Windvlaag: 0.4 m/s
26%
18:00
22°
1013.8 hPa   15.0°
1
Windvlaag: 0.2 m/s
37%
19:00
20°
1014.1 hPa   16.2°
1
Windvlaag: 0.4 m/s
36%
20:00
18°
1014.3 hPa   16.0°
1
Windvlaag: 0.4 m/s
33%
21:00
17°
1014.5 hPa   15.7°
1
Windvlaag: 0.7 m/s
17%
22:00
17°
1014.8 hPa
12%
15.3°
1
Windvlaag: 0.6 m/s
14%
23:00
16°
1014.6 hPa
12%
14.3°
1
Windvlaag: 0.5 m/s
8%
 07:13     19:21    Daglengte: 12:08 Morgen
00:00
15°
1014.5 hPa
12%
14.2°
1
Windvlaag: 0.4 m/s
15%
01:00
15°
1014.3 hPa
12%
13.7°
1
Windvlaag: 0.4 m/s
15%
02:00
14°
1014.2 hPa
13%
13.4°
1
Windvlaag: 0.4 m/s
13%
03:00
14°
1014.1 hPa
14%
13.1°
1
Windvlaag: 0.3 m/s
20%
04:00
14°
1013.9 hPa
15%
13.0°
1
Windvlaag: 0.2 m/s
29%
05:00
14°
1013.8 hPa
17%
12.9°
1
Windvlaag: 0.2 m/s
27%
06:00
14°
1014.0 hPa
17%
13.0°
1
Windvlaag: 0.2 m/s
28%
07:00
14°
1014.0 hPa
12%
12.8°
1
Windvlaag: 0.3 m/s
30%
08:00
14°
1014.2 hPa
12%
13.3°
1
Windvlaag: 0.4 m/s
34%
09:00
16°
1014.2 hPa
12%
14.2°
1
Windvlaag: 0.4 m/s
37%
10:00
17°
1014.0 hPa
12%
14.6°
2
Windvlaag: 0.7 m/s
37%
11:00
19°
1013.7 hPa
14%
15.0°
2
Windvlaag: 1.2 m/s
35%
12:00
20°
1013.0 hPa
16%
15.0°
2
Windvlaag: 1.2 m/s
32%
13:00
21°
1012.3 hPa
16%
14.8°
1
Windvlaag: 1.3 m/s
16%
14:00
22°
1011.4 hPa
15%
14.4°
1
Windvlaag: 1 m/s
26%
15:00
22°
1010.7 hPa
26%
14.1°
1
Windvlaag: 1 m/s
57%
16:00
23°
1010.1 hPa
25%
13.8°
1
Windvlaag: 1.3 m/s
53%
17:00
22°
1009.9 hPa
24%
14.3°
2
Windvlaag: 1.3 m/s
61%
18:00
21°
1009.8 hPa
21%
14.9°
1
Windvlaag: 1.6 m/s
77%
19:00
20°
1009.8 hPa
19%
15.7°
1
Windvlaag: 2.4 m/s
80%
20:00
18°
1010.0 hPa
15%
15.1°
1
Windvlaag: 1.9 m/s
69%
21:00
17°
1010.3 hPa
14%
14.7°
2
Windvlaag: 1.6 m/s
72%
22:00
17°
1010.3 hPa
14%
14.6°
2
Windvlaag: 1.2 m/s
68%
23:00
16°
1010.4 hPa
21%
14.1°
2
Windvlaag: 1.2 m/s
48%
 07:15     19:19    Daglengte: 12:04 Woensdag 23 Sep
00:00
16°
1010.2 hPa
30%
14.0°
2
Windvlaag: 1.1 m/s
60%
01:00
16°
1010.1 hPa
85%
13.9°
2
Windvlaag: 1.1 m/s
89%
02:00
16°
1010.0 hPa
93%
13.8°
2
Windvlaag: 1.5 m/s
90%
03:00
16°
1009.8 hPa
97%
13.5°
2
Windvlaag: 1.8 m/s
86%
04:00
16°
1009.8 hPa
98%
13.2°
3
Windvlaag: 1.9 m/s
70%
05:00
15°
1009.8 hPa
100%
13.3°
3
Windvlaag: 2 m/s
66%
06:00
15°
1010.0 hPa
98%
13.4°
3
Windvlaag: 2.3 m/s
86%
07:00
15°
1010.0 hPa
100%
13.4°
2
Windvlaag: 1.8 m/s
85%
08:00
15°
1010.2 hPa
100%
13.6°
2
Windvlaag: 1.7 m/s
81%
09:00
16°
1010.1 hPa
98%
13.7°
2
Windvlaag: 1.3 m/s
80%
10:00
17°
1010.2 hPa
45%
13.8°
3
Windvlaag: 1 m/s
76%
11:00
18°
1010.1 hPa 0.2 mm
97%
13.4°
3
Windvlaag: 0.8 m/s
38%
12:00
19°
1009.7 hPa 0.5 mm
96%
13.2°
3
Windvlaag: 0.6 m/s
28%
13:00
20°
1009.1 hPa
96%
13.1°
3
Windvlaag: 0.6 m/s
29%
14:00
21°
1008.5 hPa 0.3 mm
50%
13.3°
3
Windvlaag: 0.6 m/s
61%
15:00
20°
1008.4 hPa
92%
13.4°
3
Windvlaag: 3.9 m/s
37%
16:00
20°
1008.2 hPa
51%
13.7°
3
Windvlaag: 4.3 m/s
45%
17:00
19°
1008.2 hPa
99%
13.7°
3
Windvlaag: 4.4 m/s
35%
18:00
18°
1008.2 hPa
54%
13.9°
3
Windvlaag: 4.5 m/s
45%
19:00
17°
1008.3 hPa
27%
13.8°
3
Windvlaag: 8.5 m/s
46%
20:00
16°
1008.5 hPa
25%
13.8°
2
Windvlaag: 1 m/s
35%
21:00
15°
1008.4 hPa
21%
13.4°
2
Windvlaag: 4.4 m/s
30%
22:00
15°
1008.3 hPa
21%
12.9°
2
Windvlaag: 6.6 m/s
18%
23:00
14°
1008.4 hPa
21%
12.3°
2
Windvlaag: 5.6 m/s
16%
 07:16     19:17    Daglengte: 12:01 Donderdag 24 Sep
00:00
14°
1008.3 hPa
21%
11.7°
2
Windvlaag: 7.1 m/s
7%
01:00
13°
1008.2 hPa
21%
11.1°
2
Windvlaag: 7.9 m/s
3%
02:00
13°
1008.1 hPa
21%
10.6°
2
Windvlaag: 1.2 m/s
5%
03:00
14°
1008.7 hPa   11.7°
2
Windvlaag: 0 m/s
13%
Temp/Neerslag /Baro Onweer/Dauwpunt
    Temp Baro Neerslag Dauwpunt Wind Bewolking  
 07:12     19:23    Daglengte: 12:11 Vandaag
05:00
14°
1015.4 hPa   13.1°
1
23%
08:00
14°
1016.0 hPa   13.4°
1
26%
11:00
19°
1015.9 hPa   14.0°
1
35%
14:00
22°
1014.7 hPa   13.9°
1
29%
17:00
23°
1013.5 hPa   13.8°
1
26%
20:00
18°
1014.3 hPa   16.0°
1
33%
23:00
16°
1014.6 hPa   14.3°
1
8%
 07:13     19:21    Daglengte: 12:08 Morgen
02:00
14°
1014.2 hPa   13.4°
1
13%
05:00
14°
1013.8 hPa   12.9°
1
27%
08:00
14°
1014.2 hPa   13.3°
1
34%
11:00
19°
1013.7 hPa   15.0°
2
35%
14:00
22°
1011.4 hPa   14.4°
1
26%
17:00
22°
1009.9 hPa   14.3°
2
61%
20:00
18°
1010.0 hPa   15.1°
1
69%
23:00
16°
1010.4 hPa   14.1°
2
48%
 07:15     19:19    Daglengte: 12:04 Woensdag 23 Sep
02:00
16°
1010.0 hPa   13.8°
2
90%
05:00
15°
1009.8 hPa   13.3°
3
66%
08:00
15°
1010.2 hPa   13.6°
2
81%
11:00
18°
1010.1 hPa 0.2 mm 13.4°
3
38%
14:00
21°
1008.5 hPa 0.8 mm 13.3°
3
61%
17:00
19°
1008.2 hPa   13.7°
3
35%
20:00
16°
1008.5 hPa   13.8°
2
35%
23:00
14°
1008.4 hPa   12.3°
2
16%
 07:16     19:17    Daglengte: 12:01 Donderdag 24 Sep
02:00
13°
1008.1 hPa   10.6°
2
5%
05:00
14°
1009.4 hPa 10.3 mm 11.8°
3
23%
08:00
14°
1010.0 hPa 10.3 mm 12.1°
3
34%
11:00
18°
1009.6 hPa 10.3 mm 12.2°
4
28%
14:00
21°
1009.1 hPa 10.3 mm 11.0°
4
23%
17:00
19°
1009.2 hPa 10.5 mm 12.9°
3
57%
20:00
16°
1009.3 hPa 10.5 mm 13.2°
1
92%
23:00
15°
1008.4 hPa 15.2 mm 13.2°
2
92%
 07:17     19:15    Daglengte: 11:58 Vrijdag 25 Sep
02:00
14°
1007.3 hPa 20.7 mm 13.1°
2
92%
05:00
13°
1006.3 hPa 22.9 mm 12.1°
2
89%
08:00
12°
1005.4 hPa 31.9 mm 11.1°
1
86%
11:00
12°
1005.7 hPa 38.6 mm 10.2°
3
89%
14:00
11°
1005.9 hPa 43.8 mm 9.2°
4
92%
17:00
10°
1007.0 hPa 44.0 mm 8.3°
4
92%
20:00
Voelt als: 7.5°
1008.1 hPa 44.6 mm 7.3°
3
92%
23:00
Voelt als: 7.2°
1008.4 hPa 53.0 mm 6.9°
2
92%
 07:19     19:13    Daglengte: 11:54 Zaterdag 26 Sep
02:00
Voelt als: 7.0°
1008.6 hPa 59.4 mm 6.5°
2
92%
05:00
Voelt als: 6.0°
1009.4 hPa 63.1 mm 5.5°
2
92%
08:00
Voelt als: 4.9°
1010.2 hPa 63.7 mm 4.5°
3
92%
11:00
Voelt als: 5.9°
1010.9 hPa 64.6 mm 4.7°
3
92%
14:00
Voelt als: 7.1°
1011.5 hPa 67.8 mm 4.9°
4
92%
17:00
Voelt als: 5.2°
1012.0 hPa 69.1 mm 5.0°
5
92%
20:00
Voelt als: 3.1°
1012.6 hPa 70.1 mm 4.8°
5
92%
23:00
Voelt als: 3.0°
1012.8 hPa 72.1 mm 4.7°
5
92%
 07:20     19:11    Daglengte: 11:51 Zondag 27 Sep
02:00
Voelt als: 2.8°
1012.9 hPa 74.1 mm 4.5°
5
92%
05:00
Voelt als: 3.4°
1013.8 hPa 74.7 mm 4.6°
4
90%
08:00
Voelt als: 4.3°
1014.7 hPa 75.0 mm 4.7°
2
89%
11:00
Voelt als: 7.4°
1015.2 hPa 75.0 mm 5.1°
3
84%
14:00
12°
1015.7 hPa 75.1 mm 4.7°
3
79%
17:00
10°
1017.2 hPa 75.1 mm 5.4°
3
81%
20:00
Voelt als: 7.4°
1018.8 hPa 75.1 mm 5.8°
2
82%
23:00
Voelt als: 7.5°
1019.8 hPa 75.1 mm 5.9°
2
87%
 07:22     19:09    Daglengte: 11:47 Maandag 28 Sep
02:00
Voelt als: 7.4°
1020.5 hPa 150.6 mm 6.5°
2
92%
08:00
Voelt als: 7.4°
1022.6 hPa 157.3 mm 7.2°
2
77%
14:00
15°
1023.0 hPa 162.3 mm 7.1°
2
51%
20:00
11°
1023.5 hPa 164.9 mm 7.2°
3
0%
 07:23     19:06    Daglengte: 11:43 Dinsdag 29 Sep
02:00
Voelt als: 7.5°
1023.7 hPa 165.2 mm 5.2°
1
0%
08:00
Voelt als: 6.7°
1022.1 hPa 165.2 mm 6.4°
1
73%
14:00
18°
1018.8 hPa 165.2 mm 5.8°
0
0%
20:00
12°
1017.0 hPa 165.2 mm 8.0°
2
0%
 07:24     19:04    Daglengte: 11:40 Woensdag 30 Sep
02:00
Voelt als: 8.9°
1017.0 hPa 177.2 mm 6.6°
2
9%
08:00
Voelt als: 8.6°
1015.7 hPa 183.6 mm 5.9°
1
14%
14:00
19°
1013.3 hPa 183.7 mm 12.1°
5
0%
20:00
15°
1014.0 hPa 183.7 mm 11.2°
1
0%
 07:26     19:02    Daglengte: 11:36 Donderdag 01 Okt
02:00
Voelt als: 7.5°
1020.9 hPa 0.2 mm 6.5°
2
28%
08:00
Voelt als: 7.0°
1020.1 hPa 0.4 mm 5.7°
2
31%
14:00
20°
1017.6 hPa   8.9°
2
22%
20:00
10°
1017.8 hPa 0.4 mm 8.3°
1
27%
 07:27     19:00    Daglengte: 11:33 Vrijdag 02 Okt
02:00
Voelt als: 8.8°
1018.3 hPa 0.4 mm 7.7°
2
31%
08:00
Voelt als: 7.8°
1017.9 hPa 0.3 mm 6.2°
2
28%
14:00
19°
1015.9 hPa 0.3 mm 9.1°
1
26%
20:00
10°
1016.6 hPa 0.3 mm 8.6°
0
33%
 07:28     18:58    Daglengte: 11:30 Zaterdag 03 Okt
02:00
Voelt als: 8.7°
1017.1 hPa 0.4 mm 7.6°
2
25%
08:00
Voelt als: 7.8°
1017.7 hPa 0.4 mm 6.3°
2
28%
14:00
19°
1016.4 hPa 0.5 mm 9.4°
1
32%
20:00
10°
1017.5 hPa 0.4 mm 8.6°
0
34%
 07:30     18:56    Daglengte: 11:26 Zondag 04 Okt
02:00
Voelt als: 8.6°
1018.3 hPa 0.9 mm 6.6°
1
32%
08:00
Voelt als: 7.8°
1018.5 hPa 0.7 mm 6.0°
1
35%
14:00
19°
1017.3 hPa 0.5 mm 9.5°
1
37%
20:00
11°
1018.4 hPa 0.5 mm 9.2°
1
33%
 07:31     18:54    Daglengte: 11:23 Maandag 05 Okt
02:00
Voelt als: 8.7°
1019.0 hPa 0.5 mm 6.7°
1
30%
08:00
Voelt als: 8.2°
1018.8 hPa 0.5 mm 5.8°
1
31%
14:00
20°
1017.0 hPa 0.2 mm 9.3°
0
29%
20:00
11°
1017.6 hPa 0.9 mm 9.2°
0
26%
 07:33     18:52    Daglengte: 11:19 Dinsdag 06 Okt
02:00
Voelt als: 9.1°
1018.6 hPa 1.0 mm 7.0°
1
30%
  CAPE Lifted Index Hail Supercell Tornado SRH 3km CL BTM PRES CL TOP PRES Swiss DWD icon SMHI TS
 07:12     19:23    Daglengte: 12:11 Vandaag
04:00 0 J/kg -0.9 K 0 % 0 % 0 % 0 m²/s² 0 0 0.69 45
05:00 0 J/kg -1.1 K 0 % 0 % 0 % 0 m²/s² 0 0 0.34 45
06:00 0 J/kg -1.1 K 0 % 0 % 0 % 0 m²/s² 0 0 0.22 45
07:00 0 J/kg -0.5 K 0 % 0 % 0 % 0 m²/s² 0 0 0.82 45
08:00 0 J/kg -0.4 K 0 % 0 % 0 % 0 m²/s² 0 0 0.86 45
09:00 0 J/kg -0.2 K 0 % 0 % 0 % 0 m²/s² 0 0 1 45
10:00 0 J/kg -0.1 K 0 % 0 % 0 % 0 m²/s² 0 0 0.95 45
11:00 0 J/kg 0.1 K 0 % 0 % 0 % 0 m²/s² 0 0 0.91 3
12:00 0 J/kg -0.2 K 0 % 0 % 0 % 0 m²/s² 0 0 0.55 3
13:00 66 J/kg -0.8 K 0 % 0 % 0 % 0 m²/s² 0 0 -0.05 3
14:00 154 J/kg -1.2 K 0 % 0 % 0 % 0 m²/s² 0 0 -0.24 3
15:00 279 J/kg -1.5 K 0 % 0 % 0 % 0 m²/s² 0 0 -0.3 2
16:00 339 J/kg -1.7 K 0 % 0 % 0 % 0 m²/s² 0 0 -0.71 1
17:00 344 J/kg -2.0 K 0 % 0 % 0 % 0 m²/s² 0 0 -0.83 3
18:00 320 J/kg -1.8 K 0 % 0 % 0 % 0 m²/s² 0 0 -0.48 3
19:00 401 J/kg -1.9 K 0 % 0 % 0 % 0 m²/s² 0 0 -1.06 3
20:00 256 J/kg -2.4 K 0 % 0 % 0 % 0 m²/s² 0 0 -1.65 3
21:00 262 J/kg -2.2 K 0 % 0 % 0 % 0 m²/s² 0 0 -1.24 0
22:00 154 J/kg -2.4 K 0 % 0 % 0 % 0 m²/s² 0 0 -1.68 1
23:00 0 J/kg -2.4 K 0 % 0 % 0 % 0 m²/s² 0 0 -0.96 0
 07:13     19:21    Daglengte: 12:08 Morgen
00:00 0 J/kg -2.0 K 0 % 0 % 0 % 0 m²/s² 0 0 0.25 45
01:00 0 J/kg -2.1 K 0 % 0 % 0 % 0 m²/s² 0 0 0.06 45
02:00 0 J/kg -1.5 K 0 % 0 % 0 % 0 m²/s² 0 0 0.81 45
03:00 0 J/kg -1.0 K 0 % 0 % 0 % 0 m²/s² 0 0 0.95 45
04:00 0 J/kg -0.5 K 0 % 0 % 0 % 0 m²/s² 0 0 0.85 45
05:00 0 J/kg -0.5 K 0 % 0 % 0 % 0 m²/s² 0 0 0.34 45
06:00 0 J/kg -0.3 K 0 % 0 % 0 % 0 m²/s² 0 0 0.27 45
07:00 0 J/kg -0.2 K 0 % 0 % 0 % 0 m²/s² 0 0 0.43 45
08:00 0 J/kg 0.1 K 0 % 0 % 0 % 0 m²/s² 0 0 0.58 45
09:00 0 J/kg 0.6 K 0 % 0 % 0 % 0 m²/s² 0 0 0.87 45
10:00 0 J/kg 0.9 K 0 % 0 % 0 % 0 m²/s² 0 0 1.02 45
11:00 0 J/kg 1.1 K 0 % 0 % 0 % 0 m²/s² 0 0 1.4 3
12:00 13 J/kg 0.4 K 0 % 0 % 0 % 0 m²/s² 0 0 0.82 3
13:00 57 J/kg -0.4 K 0 % 0 % 0 % 0 m²/s² 0 0 0.11 2
14:00 199 J/kg -1.0 K 0 % 0 % 0 % 0 m²/s² 0 0 -0.1 2
15:00 284 J/kg -1.2 K 0 % 0 % 0 % 0 m²/s² 0 0 0 3
16:00 336 J/kg -1.8 K 0 % 0 % 0 % 0 m²/s² 0 0 -0.42 3
17:00 447 J/kg -2.2 K 0 % 0 % 0 % 0 m²/s² 0 0 -0.82 3
18:00 556 J/kg -2.5 K 0 % 0 % 0 % 0 m²/s² 0 0 -1.6 3
19:00 493 J/kg -2.8 K 0 % 0 % 0 % 0 m²/s² 0 0 -1.75 3
20:00 64 J/kg -2.3 K 0 % 0 % 0 % 0 m²/s² 0 0 -1.73 3
21:00 0 J/kg -0.6 K 0 % 0 % 0 % 0 m²/s² 0 0 0.03 3
22:00 0 J/kg -0.3 K 0 % 0 % 0 % 0 m²/s² 0 0 0.42 3
23:00 0 J/kg -0.7 K 0 % 0 % 0 % 0 m²/s² 0 0 0.26 3
 07:15     19:19    Daglengte: 12:04 Woensdag 23 Sep
00:00 0 J/kg 0.2 K 0 % 0 % 0 % 0 m²/s² 0 0 1.25 3
01:00 0 J/kg 0.7 K 0 % 0 % 0 % 0 m²/s² 0 0 1.66 3
02:00 0 J/kg 0.1 K 0 % 0 % 0 % 0 m²/s² 0 0 1.06 3
03:00 0 J/kg -0.5 K 0 % 0 % 0 % 0 m²/s² 0 0 0.46 80
04:00 0 J/kg -1.1 K 0 % 0 % 0 % 0 m²/s² 0 0 -0.26 3
05:00 0 J/kg -0.6 K 0 % 0 % 0 % 0 m²/s² 0 0 0.15 3
06:00 0 J/kg -0.5 K 0 % 0 % 0 % 0 m²/s² 0 0 -0.23 3
07:00 0 J/kg 0.2 K 0 % 0 % 0 % 0 m²/s² 0 0 0.53 61
08:00 0 J/kg 1.2 K 0 % 0 % 0 % 0 m²/s² 0 0 1.71 61
09:00 0 J/kg 1.5 K 0 % 0 % 0 % 0 m²/s² 0 0 2.16 3
10:00 0 J/kg 0.7 K 0 % 0 % 0 % 0 m²/s² 0 0 1.63 3
11:00 18 J/kg 0.5 K 0 % 0 % 0 % 0 m²/s² 0 0 1.91 3
12:00 55 J/kg 0.0 K 0 % 0 % 0 % 0 m²/s² 0 0 1.35 80
13:00 48 J/kg 0.2 K 0 % 0 % 0 % 0 m²/s² 0 0 1.55 61
14:00 25 J/kg 0.3 K 0 % 0 % 0 % 0 m²/s² 0 0 1.56 3
15:00 0 J/kg 1.1 K 0 % 0 % 0 % 0 m²/s² 0 0 2.36 2
16:00 0 J/kg 1.8 K 0 % 0 % 0 % 0 m²/s² 0 0 2.88 3
17:00 0 J/kg 1.2 K 0 % 0 % 0 % 0 m²/s² 0 0 2.13 3
18:00 33 J/kg 0.1 K 0 % 0 % 0 % 0 m²/s² 0 0 1.03 3
19:00 94 J/kg -0.1 K 0 % 0 % 0 % 0 m²/s² 0 0 -0.07 3
20:00 0 J/kg 0.2 K 0 % 0 % 0 % 0 m²/s² 0 0 0.53 3
21:00 4 J/kg 1.0 K 0 % 0 % 0 % 0 m²/s² 0 0 1.18 2
22:00 0 J/kg 0.4 K 0 % 0 % 0 % 0 m²/s² 0 0 0.73 2
23:00 0 J/kg -0.4 K 0 % 0 % 0 % 0 m²/s² 0 0 1.13 2
 07:16     19:17    Daglengte: 12:01 Donderdag 24 Sep
00:00 0 J/kg -1.0 K 0 % 0 % 0 % 0 m²/s² 0 0 2.3 1
01:00 0 J/kg -1.0 K 0 % 0 % 0 % 0 m²/s² 0 0 2.3 0
02:00 0 J/kg -0.3 K 0 % 0 % 0 % 0 m²/s² 0 0 3.57 45
03:00 0 J/kg 0.0 K 0 % 0 % 0 % 0 m²/s² 0 0 13.83
Temp Baro Wind Neerslag
  EWN Forecast EWN WRFDA DWD ICON FMI HIRLAM MET Norway GFS
 07:12     19:23    Daglengte: 12:11 Vandaag
05:00 13.8° 1015.4 hPa 1.3 m/s 0.0 mm 11.6° 1013.1 hPa 2.3 m/s 0.0 mm 14.1° 1015.4 hPa 0.4 m/s -2.0 mm 12.4° 1016.2 hPa 0.3 m/s 0.0 mm 14.0° 1015.4 hPa 1.8 m/s 12.3° 1016.1 hPa 0.4 m/s
08:00 14.0° 1016.0 hPa 0.8 m/s 0.0 mm 12.9° 1014.2 hPa 2.3 m/s 0.0 mm 13.6° 1015.9 hPa 0.3 m/s 0.0 mm 12.6° 1016.5 hPa 0.7 m/s 0.0 mm 14.7° 1016.0 hPa 0.7 m/s 13.0° 1016.4 hPa 0.3 m/s
11:00 18.5° 1015.9 hPa 1.2 m/s 0.0 mm 18.2° 1014.0 hPa 2.1 m/s 0.0 mm 17.4° 1015.9 hPa 0.7 m/s 0.0 mm 18.7° 1015.9 hPa 0.4 m/s 0.0 mm 19.4° 1016.0 hPa 1.3 m/s 20.4° 1015.9 hPa 0.3 m/s
14:00 22.3° 1014.7 hPa 0.7 m/s 0.0 mm 22.2° 1013.7 hPa 1.5 m/s 0.0 mm 21.7° 1014.6 hPa 0.6 m/s -0.0 mm 22.9° 1014.6 hPa 0.9 m/s 0.0 mm 22.7° 1014.6 hPa 0.6 m/s 23.6° 1015.0 hPa 1.2 m/s
17:00 23.0° 1013.5 hPa 1.1 m/s 0.0 mm 23.3° 1012.4 hPa 0.4 m/s 0.0 mm 22.4° 1013.4 hPa 0.8 m/s 0.0 mm 23.3° 1013.5 hPa 1.2 m/s 0.0 mm 23.1° 1013.4 hPa 1.1 m/s 23.2° 1014.2 hPa 1.0 m/s
20:00 18.4° 1014.3 hPa 1.4 m/s 0.0 mm 17.1° 1012.5 hPa 2.6 m/s 0.0 mm 18.6° 1014.3 hPa 0.9 m/s 0.0 mm 18.9° 1014.5 hPa 1.0 m/s 0.0 mm 17.5° 1014.4 hPa 1.4 m/s 17.3° 1014.6 hPa 0.8 m/s
23:00 16.2° 1014.6 hPa 1.2 m/s 0.0 mm 16.1° 1013.0 hPa 3.2 m/s 0.3 mm 14.8° 1014.7 hPa 1.1 m/s 0.0 mm 15.7° 1015.0 hPa 0.7 m/s 0.0 mm 16.9° 1014.3 hPa 1.0 m/s 15.1° 1015.3 hPa 0.5 m/s
 07:13     19:21    Daglengte: 12:08 Morgen
02:00 14.4° 1014.2 hPa 1.2 m/s 0.0 mm 13.1° 1012.5 hPa 2.5 m/s 0.5 mm 13.1° 1014.8 hPa 0.4 m/s 0.0 mm 14.3° 1014.4 hPa 1.2 m/s 0.0 mm 14.8° 1014.1 hPa 1.4 m/s 13.9° 1015.2 hPa 0.7 m/s
05:00 13.9° 1013.8 hPa 0.7 m/s 0.0 mm 12.0° 1011.9 hPa 2.7 m/s 0.5 mm 12.6° 1014.4 hPa 0.5 m/s 0.0 mm 13.3° 1014.2 hPa 0.2 m/s 0.0 mm 14.6° 1013.7 hPa 1.5 m/s 13.1° 1014.4 hPa 0.7 m/s
08:00 14.0° 1014.2 hPa 0.9 m/s 0.0 mm 13.8° 1012.5 hPa 1.7 m/s 0.5 mm 13.3° 1014.7 hPa 0.9 m/s 0.0 mm 13.7° 1014.3 hPa 0.6 m/s 0.0 mm 14.5° 1014.2 hPa 1.2 m/s 13.2° 1014.4 hPa 0.9 m/s
11:00 19.0° 1013.7 hPa 1.9 m/s 0.0 mm 17.5° 1012.3 hPa 3.4 m/s 0.5 mm 17.7° 1013.8 hPa 1.7 m/s 0.0 mm 20.0° 1013.1 hPa 2.0 m/s 0.0 mm 19.3° 1013.7 hPa 1.8 m/s 19.3° 1013.5 hPa 0.9 m/s
14:00 22.0° 1011.4 hPa 1.3 m/s 0.0 mm 21.6° 1010.3 hPa 0.9 m/s 0.5 mm 21.5° 1012.0 hPa 1.3 m/s 0.0 mm 21.5° 1011.2 hPa 1.2 m/s 0.0 mm 22.7° 1011.3 hPa 0.9 m/s 23.1° 1012.0 hPa 1.7 m/s
17:00 21.9° 1009.9 hPa 1.6 m/s 0.0 mm 22.5° 1008.3 hPa 0.8 m/s 0.5 mm 21.8° 1009.9 hPa 1.4 m/s 0.0 mm 22.6° 1009.6 hPa 1.2 m/s 0.0 mm 21.5° 1010.0 hPa 1.6 m/s 23.0° 1010.5 hPa 1.1 m/s
20:00 18.3° 1010.0 hPa 1.4 m/s 0.0 mm 17.2° 1009.0 hPa 2.8 m/s 0.8 mm 18.2° 1010.0 hPa 0.9 m/s 0.0 mm 19.2° 1009.6 hPa 0.9 m/s 0.0 mm 18.0° 1010.1 hPa 1.9 m/s 16.8° 1010.6 hPa 1.6 m/s
23:00 16.2° 1010.4 hPa 2.1 m/s 0.0 mm 13.3° 1008.5 hPa 1.1 m/s 1.2 mm 15.9° 1010.6 hPa 1.0 m/s 0.0 mm 16.3° 1010.4 hPa 2.4 m/s 14.5° 1011.2 hPa 1.2 m/s
 07:15     19:19    Daglengte: 12:04 Woensdag 23 Sep
02:00 16.1° 1010.0 hPa 2.3 m/s 0.0 mm 12.2° 1008.3 hPa 2.6 m/s 1.2 mm 16.4° 1010.0 hPa 1.4 m/s 0.1 mm 16.4° 1010.0 hPa 2.7 m/s 14.1° 1011.0 hPa 1.1 m/s
05:00 15.2° 1009.8 hPa 2.7 m/s 0.0 mm 12.2° 1007.6 hPa 3.1 m/s 1.2 mm 15.9° 1010.0 hPa 1.5 m/s 0.4 mm 15.1° 1009.9 hPa 2.9 m/s 13.3° 1010.6 hPa 1.4 m/s
08:00 15.2° 1010.2 hPa 2.2 m/s 0.0 mm 14.6° 1008.4 hPa 3.7 m/s 1.2 mm 15.8° 1010.0 hPa 0.9 m/s 0.2 mm 14.9° 1010.3 hPa 2.2 m/s 12.9° 1011.3 hPa 1.5 m/s
11:00 18.1° 1010.1 hPa 3.1 m/s 0.2 mm 18.3° 1008.2 hPa 3.8 m/s 1.2 mm 17.6° 1010.2 hPa 1.9 m/s 0.1 mm 18.2° 1010.3 hPa 3.2 m/s 17.5° 1010.9 hPa 2.5 m/s
14:00 20.8° 1008.5 hPa 3.5 m/s 0.8 mm 21.4° 1007.9 hPa 3.0 m/s 1.2 mm 19.5° 1008.5 hPa 2.5 m/s 0.6 mm 21.0° 1008.7 hPa 4.1 m/s 21.0° 1009.8 hPa 1.9 m/s
17:00 18.9° 1008.2 hPa 3.4 m/s 0.0 mm 21.8° 1006.4 hPa 3.4 m/s 1.2 mm 18.9° 1008.0 hPa 3.7 m/s 0.0 mm 18.4° 1008.7 hPa 3.2 m/s 21.1° 1008.9 hPa 1.5 m/s
20:00 15.9° 1008.5 hPa 2.4 m/s 0.0 mm 16.6° 1007.8 hPa 4.3 m/s 1.2 mm 16.1° 1008.5 hPa 1.1 m/s 0.0 mm 15.7° 1008.7 hPa 2.4 m/s 15.3° 1009.6 hPa 1.5 m/s
23:00 14.2° 1008.4 hPa 2.1 m/s 0.0 mm 13.6° 1008.1 hPa 2.8 m/s 1.3 mm 13.9° 1008.4 hPa 1.0 m/s 0.0 mm 14.6° 1008.4 hPa 2.2 m/s 13.5° 1011.0 hPa 1.7 m/s
 07:16     19:17    Daglengte: 12:01 Donderdag 24 Sep
02:00 12.7° 1008.1 hPa 1.9 m/s 0.0 mm 12.2° 1007.9 hPa 2.8 m/s 1.3 mm 11.4° 1008.4 hPa 0.5 m/s 0.0 mm 13.5° 1008.1 hPa 2.0 m/s 12.5° 1010.3 hPa 1.4 m/s
05:00 14.0° 1009.4 hPa 2.7 m/s 10.3 mm 14.2° 1009.3 hPa 2.9 m/s 11.9° 1010.3 hPa 0.9 m/s 10.3 mm
08:00 14.4° 1010.0 hPa 3.1 m/s 10.3 mm 14.5° 1009.9 hPa 3.3 m/s 13.2° 1011.1 hPa 1.4 m/s 10.3 mm
11:00 17.9° 1009.6 hPa 3.7 m/s 10.3 mm 17.9° 1009.5 hPa 3.8 m/s 17.6° 1010.8 hPa 2.8 m/s 10.3 mm
14:00 21.3° 1009.1 hPa 4.0 m/s 10.3 mm 21.3° 1009.0 hPa 4.2 m/s 21.4° 1010.2 hPa 1.8 m/s 10.3 mm
17:00 18.6° 1009.2 hPa 2.5 m/s 10.5 mm 18.6° 1009.2 hPa 2.6 m/s 18.7° 1009.2 hPa 1.7 m/s 10.5 mm
20:00 15.8° 1009.3 hPa 0.9 m/s 10.5 mm 15.8° 1009.4 hPa 1.0 m/s 15.3° 1008.4 hPa 0.0 m/s 10.5 mm
23:00 15.0° 1008.4 hPa 1.6 m/s 15.2 mm 15.2° 1008.3 hPa 1.5 m/s 13.4° 1008.6 hPa 2.9 m/s 15.2 mm
 07:17     19:15    Daglengte: 11:58 Vrijdag 25 Sep
02:00 14.4° 1007.3 hPa 2.0 m/s 20.7 mm 14.5° 1007.3 hPa 2.0 m/s 13.0° 1007.8 hPa 2.3 m/s 20.7 mm
05:00 13.4° 1006.3 hPa 1.6 m/s 22.9 mm 13.5° 1006.3 hPa 1.6 m/s 12.3° 1006.2 hPa 1.5 m/s 22.9 mm
08:00 12.4° 1005.4 hPa 1.5 m/s 31.9 mm 12.5° 1005.3 hPa 1.3 m/s 11.0° 1006.0 hPa 3.6 m/s 31.9 mm
11:00 11.7° 1005.7 hPa 2.9 m/s 38.6 mm 11.8° 1005.6 hPa 3.0 m/s 10.6° 1006.3 hPa 2.3 m/s 38.6 mm
14:00 11.1° 1005.9 hPa 4.4 m/s 43.8 mm 11.2° 1005.9 hPa 4.6 m/s 10.3° 1006.4 hPa 2.6 m/s 43.8 mm
17:00 10.2° 1007.0 hPa 3.7 m/s 44.0 mm 10.1° 1007.1 hPa 3.8 m/s 11.3° 1005.1 hPa 2.9 m/s 44.0 mm
20:00 9.1° 1008.1 hPa 2.8 m/s 44.6 mm 9.1° 1008.4 hPa 3.0 m/s 9.2° 1005.2 hPa 1.1 m/s 44.6 mm
23:00 8.5° 1008.4 hPa 2.4 m/s 53.0 mm 8.6° 1008.6 hPa 2.4 m/s 7.3° 1005.6 hPa 2.9 m/s 53.0 mm
 07:19     19:13    Daglengte: 11:54 Zaterdag 26 Sep
02:00 8.0° 1008.6 hPa 1.9 m/s 59.4 mm 8.2° 1008.8 hPa 1.7 m/s 6.0° 1006.6 hPa 3.9 m/s 59.4 mm
05:00 7.4° 1009.4 hPa 2.2 m/s 63.1 mm 7.5° 1009.6 hPa 2.1 m/s 5.8° 1006.8 hPa 2.5 m/s 63.1 mm
08:00 6.7° 1010.2 hPa 2.6 m/s 63.7 mm 6.8° 1010.4 hPa 2.6 m/s 5.6° 1007.5 hPa 2.3 m/s 63.7 mm
11:00 7.9° 1010.9 hPa 3.1 m/s 64.6 mm 8.1° 1011.1 hPa 3.1 m/s 6.5° 1008.1 hPa 3.2 m/s 64.6 mm
14:00 9.1° 1011.5 hPa 3.5 m/s 67.8 mm 9.3° 1011.8 hPa 3.6 m/s 6.9° 1008.7 hPa 2.5 m/s 67.8 mm
17:00 7.9° 1012.0 hPa 4.5 m/s 69.1 mm 8.0° 1012.2 hPa 4.5 m/s 7.4° 1009.3 hPa 4.5 m/s 69.1 mm
20:00 6.5° 1012.6 hPa 5.4 m/s 70.1 mm 6.6° 1012.7 hPa 5.5 m/s 6.0° 1011.7 hPa 4.0 m/s 70.1 mm
23:00 6.3° 1012.8 hPa 4.9 m/s 72.1 mm 6.3° 1012.8 hPa 5.1 m/s 6.5° 1013.6 hPa 2.9 m/s 72.1 mm
 07:20     19:11    Daglengte: 11:51 Zondag 27 Sep
02:00 6.0° 1012.9 hPa 4.6 m/s 74.1 mm 6.0° 1012.8 hPa 4.7 m/s 5.6° 1014.4 hPa 3.0 m/s 74.1 mm
05:00 6.1° 1013.8 hPa 3.5 m/s 74.7 mm 6.2° 1013.7 hPa 3.6 m/s 4.4° 1015.2 hPa 2.9 m/s 74.7 mm
08:00 6.1° 1014.7 hPa 2.5 m/s 75.0 mm 6.4° 1014.6 hPa 2.5 m/s 3.1° 1016.3 hPa 2.0 m/s 75.0 mm
11:00 8.9° 1015.2 hPa 2.6 m/s 75.0 mm 8.9° 1015.3 hPa 2.5 m/s 8.1° 1014.7 hPa 3.7 m/s 75.1 mm
14:00 11.5° 1015.7 hPa 2.7 m/s 75.1 mm 11.5° 1016.0 hPa 2.6 m/s 11.7° 1012.9 hPa 4.2 m/s 75.1 mm
17:00 10.4° 1017.2 hPa 2.6 m/s 75.1 mm 10.2° 1017.6 hPa 2.5 m/s 12.1° 1012.0 hPa 3.6 m/s 75.1 mm
20:00 8.8° 1018.8 hPa 2.5 m/s 75.1 mm 9.0° 1019.3 hPa 2.5 m/s 6.3° 1013.8 hPa 2.1 m/s 75.1 mm
23:00 8.8° 1019.8 hPa 2.4 m/s 75.1 mm 8.9° 1020.2 hPa 2.5 m/s 7.5° 1014.3 hPa 2.4 m/s 75.1 mm
 07:22     19:09    Daglengte: 11:47 Maandag 28 Sep
02:00 8.7° 1020.5 hPa 2.3 m/s 75.5 mm 8.9° 1021.2 hPa 2.4 m/s 6.6° 1013.4 hPa 1.7 m/s 75.5 mm
08:00 8.1° 1022.6 hPa 1.7 m/s 80.1 mm 8.1° 1023.4 hPa 1.5 m/s 8.7° 1013.7 hPa 3.4 m/s 80.1 mm
14:00 14.6° 1023.0 hPa 1.8 m/s 81.7 mm 14.7° 1023.7 hPa 1.6 m/s 13.7° 1015.7 hPa 4.0 m/s 81.7 mm
20:00 10.8° 1023.5 hPa 2.7 m/s 82.6 mm 10.8° 1023.9 hPa 2.8 m/s 11.1° 1019.2 hPa 1.4 m/s 82.6 mm
 07:23     19:06    Daglengte: 11:43 Dinsdag 29 Sep
02:00 8.0° 1023.7 hPa 1.4 m/s 82.6 mm 7.9° 1024.1 hPa 1.4 m/s 8.7° 1019.8 hPa 1.2 m/s 82.6 mm
08:00 7.2° 1022.1 hPa 1.3 m/s 82.6 mm 7.1° 1022.5 hPa 1.3 m/s 8.7° 1018.1 hPa 1.5 m/s 82.6 mm
14:00 17.7° 1018.8 hPa 0.2 m/s 82.6 mm 17.6° 1019.4 hPa 0.1 m/s 18.7° 1012.3 hPa 1.7 m/s 82.6 mm
20:00 12.5° 1017.0 hPa 1.7 m/s 82.6 mm 12.7° 1017.7 hPa 1.6 m/s 10.0° 1009.7 hPa 2.9 m/s 82.6 mm
 07:24     19:04    Daglengte: 11:40 Woensdag 30 Sep
02:00 9.4° 1017.0 hPa 1.6 m/s 91.8 mm 9.3° 1017.3 hPa 1.5 m/s 10.5° 1013.6 hPa 2.6 m/s 91.8 mm
08:00 8.6° 1015.7 hPa 0.8 m/s 91.8 mm 8.6° 1015.9 hPa 0.6 m/s 8.7° 1013.6 hPa 2.5 m/s 91.8 mm
14:00 19.5° 1013.3 hPa 5.4 m/s 91.8 mm 19.5° 1013.3 hPa 5.4 m/s 91.8 mm
20:00 14.6° 1014.0 hPa 1.3 m/s 91.9 mm 14.6° 1014.0 hPa 1.3 m/s 91.9 mm
 07:26     19:02    Daglengte: 11:36 Donderdag 01 Okt
02:00 8.5° 1020.9 hPa 1.9 m/s 0.2 mm
08:00 8.1° 1020.1 hPa 2.0 m/s 0.4 mm
14:00 19.5° 1017.6 hPa 1.7 m/s 0.0 mm
20:00 10.1° 1017.8 hPa 0.8 m/s 0.4 mm
 07:27     19:00    Daglengte: 11:33 Vrijdag 02 Okt
02:00 9.5° 1018.3 hPa 1.8 m/s 0.4 mm
08:00 8.4° 1017.9 hPa 1.6 m/s 0.3 mm
14:00 19.1° 1015.9 hPa 1.2 m/s 0.3 mm
20:00 10.4° 1016.6 hPa 0.3 m/s 0.3 mm
 07:28     18:58    Daglengte: 11:30 Zaterdag 03 Okt
02:00 9.3° 1017.1 hPa 1.7 m/s 0.4 mm
08:00 8.5° 1017.7 hPa 1.6 m/s 0.4 mm
14:00 18.9° 1016.4 hPa 0.8 m/s 0.5 mm
20:00 10.5° 1017.5 hPa 0.5 m/s 0.4 mm
 07:30     18:56    Daglengte: 11:26 Zondag 04 Okt
02:00 8.9° 1018.3 hPa 1.3 m/s 0.9 mm
08:00 8.3° 1018.5 hPa 1.5 m/s 0.7 mm
14:00 19.3° 1017.3 hPa 0.7 m/s 0.5 mm
20:00 11.1° 1018.4 hPa 0.5 m/s 0.5 mm
 07:31     18:54    Daglengte: 11:23 Maandag 05 Okt
02:00 9.1° 1019.0 hPa 1.4 m/s 0.5 mm
08:00 8.3° 1018.8 hPa 1.1 m/s 0.5 mm
14:00 19.7° 1017.0 hPa 0.4 m/s 0.2 mm
20:00 11.1° 1017.6 hPa 0.3 m/s 0.9 mm
 07:33     18:52    Daglengte: 11:19 Dinsdag 06 Okt
02:00 9.1° 1018.6 hPa 1.1 m/s 1.0 mm
FMI Hirlam - 7.5 km EWN WRFDA - 12 km DWD ICON - 7 km GFS - 25 km Basiskaart






























































Updatetijd (Europe/Amsterdam) Resolutie Lengte Stap
FMI Hirlam 02:00, 08:00, 14:00, 20:00 7.5 km 49h 1h
EWN WRFDA 22:00, 04:00, 10:00, 16:00 12 km 73h 1h
DWD ICON 23:45, 05:45, 11:45, 17:45 7 km 75h 1h
GFS 01:45, 07:45, 13:45, 19:45 25 km 237h 3h
30+ mm
25-30 mm
20-25 mm
15-20 mm
10-15 mm
6-10 mm
4-6 mm
2-4 mm
1-2 mm
0.5-1 mm
0.2-0.5 mm
0.1-0.2 mm
30+ mm
25-30 mm
20-25 mm
15-20 mm
10-15 mm
6-10 mm
4-6 mm
2-4 mm
1-2 mm
0.5-1 mm
0.2-0.5 mm
0.1-0.2 mm
Sneeuwval
Natte sneeuw
Hagel
Vorst
30+ mm
25-30 mm
20-25 mm
15-20 mm
10-15 mm
6-10 mm
4-6 mm
2-4 mm
1-2 mm
0.5-1 mm
0.2-0.5 mm
0.1-0.2 mm
Sneeuwval
Natte sneeuw
Hagel
Vorst
Onweer
50 mm
40 mm
30 mm
26 mm
22 mm
18 mm
14 mm
10 mm
9 mm
8 mm
7 mm
6 mm
5 mm
4.5 mm
4 mm
3.5 mm
3 mm
2.5 mm
2 mm
1.5 mm
1 mm
0.8 mm
0.6 mm
0.4 mm
0.2 mm
0.05 mm
35°
30°
25°
20°
15°
10°
-5°
-10°
-15°
-20°
-25°
-30°
-35°
33> m/s
29 m/s
25 m/s
21 m/s
17 m/s
14 m/s
11 m/s
8 m/s
5 m/s
3 m/s
0 m/s
2600 J/kg
2400 J/kg
2200 J/kg
2000 J/kg
1800 J/kg
1600 J/kg
1400 J/kg
1200 J/kg
1000 J/kg
800 J/kg
600 J/kg
400 J/kg
200 J/kg
70 dBZ
65 dBZ
60 dBZ
55 dBZ
50 dBZ
45 dBZ
40 dBZ
35 dBZ
30 dBZ
25 dBZ
20 dBZ
15 dBZ
10 dBZ
5 dBZ
-1 K
-2 K
-3 K
-4 K
-5 K
-6 K
-7 K
-8 K
-9 K
950 m²/s²
900 m²/s²
850 m²/s²
800 m²/s²
750 m²/s²
700 m²/s²
650 m²/s²
600 m²/s²
550 m²/s²
500 m²/s²
450 m²/s²
400 m²/s²
350 m²/s²
300 m²/s²
250 m²/s²
200 m²/s²
150 m²/s²
100 m²/s²
46 m/s
44 m/s
42 m/s
40 m/s
38 m/s
36 m/s
34 m/s
32 m/s
30 m/s
28 m/s
26 m/s
24 m/s
22 m/s
20 m/s
16 m/s
12 m/s
8 m/s
4 m/s
30 m/s
28 m/s
26 m/s
24 m/s
22 m/s
20 m/s
18 m/s
16 m/s
14 m/s
12 m/s
10 m/s
8 m/s
6 m/s
4 m/s
2 m/s
3.0
2.8
2.6
2.4
2.2
2.0
1.8
1.6
1.4
1.2
1.0
0.8
0.6
0.4
0.2
15
14
13
12
11
10
9
8
7
6
5
4
3
2
1
90%
80%
70%
60%
50%
40%
30%
20%
10%
42
40
38
36
34
32
30
28
26
24
22
20
18
16
14
12
90+ cm
80-90 cm
70-80 cm
60-70 cm
50-60 cm
40-50 cm
30-40 cm
20-30 cm
10-20 cm
1-10 cm
Sneeuwval
Natte sneeuw
Regen
>120 mm
115 mm
110 mm
105 mm
100 mm
95 mm
90 mm
85 mm
80 mm
75 mm
70 mm
65 mm
60 mm
55 mm
50 mm
45 mm
45 mm
40 mm
35 mm
30 mm
25 mm
20 mm
15 mm
10 mm
5 mm
0.1 mm
960 hPa
880 hPa
800 hPa
720 hPa
640 hPa
560 hPa
584 gpdm
568 gpdm
552 gpdm
536 gpdm
520 gpdm
504 gpdm
488 gpdm
Extreem zwaar Noodweer Kans op onweer
15% 15% 5% 50% 15%

Dag




Kaart






35°
30°
25°
20°
15°
10°
-5°
-10°
-15°
-20°
-25°
-30°
-35°
33> m/s
29 m/s
25 m/s
21 m/s
17 m/s
14 m/s
11 m/s
8 m/s
5 m/s
3 m/s
0 m/s
Extreem zwaar Noodweer Kans op onweer
15% 15% 5% 50% 15%
>120 mm
115 mm
110 mm
105 mm
100 mm
95 mm
90 mm
85 mm
80 mm
75 mm
70 mm
65 mm
60 mm
55 mm
50 mm
45 mm
45 mm
40 mm
35 mm
30 mm
25 mm
20 mm
15 mm
10 mm
5 mm
0.1 mm
Onweer risico kaarten - De groene en gele kleur geeft de kans op onweer aan binnen 40 km van een punt. Oranje, rood en violet hebben hetzelfde niveau zoals je het ziet op estofex.org waaronder ook de kans op hagel en supercells.

dBZ - dBZ staat voor decibel ten opzichte van Z.

Cape - Convective available potential energy (CAPE), is de totale hoeveelheid energie die een luchtpakketje nodig heeft om zover mogelijk te stijgen in de atmosfeer.

K Index - K-Index wordt berekend door de Vertical Totals (VT) en het verschil tussen de 850 hPa temperatuur en de 700 hPa dauwpuntsdepressie (Tdd 700) bij elkaar op te tellen.

TT Index - Convectie index wordt gebruikt voor het voorspellen van zware buien of onweer.

WRF - The Weather Research and Forecasting (WRF) is een volgende generatie mesoscale numeriek weersvoorspelling systeem ontworpen om zowel de operationele planning als het atmosferisch onderzoek te dienen. WRF is a cooperatie tussen het National Center for Atmospheric Research (NCAR), National Centers for Environmental Prediction (NCEP), Forecast Systems Laboratory (FSL), Air Force Weather Agency (AFWA), Naval Research Laboratory, University of Oklahoma, en de Federal Aviation Administration (FAA). Deze software draait op onze server.

WRFDA - Een meer geavanceerde versie van WRF

Arome - Het 2.5 km Arome model. Verzorgd door het Noors Meteorologisch Instituut.

MET Norway - De proff-default 4km meteorological data is een beste keus selectie van meteorologische modellen gebruikt door met.no die zijn geïnterpoleerd tot een gemeenschappelijke dataset. Verzorgd door het Noorse Meteorologisch Instituut.

SMHI - Het Hirlam model verzorgd door het Zweeds meteorologisch instituut.

FMI - Het Hirlam model verzorgd door het Fins meteorologisch instituut. Dekking alleen Finland.

GFS - Het Global Forecast Systeem (GFS) is een wereldwijd numerieke weersvoorspelling computermodel, gerund door NOAA.

GEM-GDPS - Het GEM-GDPS is a wereldwijd numeriek weersvoorspelling computermodel verzorgd door het Canadees Meteorologisch Centrum.

Credits/Info: Dank aan Stefan Gofferje van sääkeskus.fi voor enkele formules van GrADS. Info: Wikipedia.

Betrouwbaarheid van de verwachting

NB! 2015-03-29: Rebuilding the accuracy-test!

EWNACC
Day 1 Good forecasts

Dag 1 Tmax

Dag 2 Tmax

Geladen verwachtingen TOP 50

Totaal geladen verwachtingen:
Plaats Latitude Longitude Verwachtingen Plaats Latitude Longitude Verwachtingen